Theta_e
288 289 289 289 290 290 289 289 289 290 290 291 291 291 290 289 290 289 289 289 288 288 289 289 289 291 293 295 297 298 296 294 287 286 288 287 287 286 286 286 286 286 291
286 287 287 288 288 287 287 287 288 288 289 289 289 289 289 289 288 288 287 287 286 285 286 287 287 290 289 291 293 293 293 293 289 284 285 285 284 283 283 282 283 284 285
285 285 285 285 286 286 286 286 286 286 287 287 287 287 287 287 287 287 286 286 285 285 284 285 285 286 287 288 289 290 290 291 289 286 284 285 282 281 280 280 280 280 281
282 282 283 283 284 285 285 285 284 285 285 285 285 285 285 286 285 285 285 285 284 284 284 284 285 285 285 286 287 287 288 287 287 285 284 283 282 282 280 279 277 278 278
279 280 280 282 283 284 284 284 284 283 283 284 285 284 284 285 285 283 283 282 282 283 283 283 282 283 286 288 286 286 286 285 285 284 283 283 281 280 278 279 276 275 274
278 279 280 280 281 281 282 282 282 282 281 281 284 285 284 284 286 285 283 281 281 281 282 283 282 281 282 285 287 288 287 285 284 283 281 282 281 281 280 278 276 276 274
278 279 279 280 280 280 281 281 280 280 280 280 282 283 284 284 286 285 283 281 280 280 280 282 283 282 281 281 283 283 283 285 285 283 281 280 279 279 280 279 279 276 273
278 278 278 279 279 280 280 280 280 279 279 279 280 281 282 284 286 286 284 281 280 280 280 281 282 283 281 281 280 280 280 281 280 280 279 279 279 280 280 279 276 273 273
277 277 277 278 278 279 279 280 280 280 280 280 280 280 280 281 285 287 284 282 281 279 280 281 282 283 284 283 279 278 277 277 281 282 282 284 284 283 279 276 273 269 267
277 278 277 278 277 277 277 279 281 281 280 281 281 281 281 281 284 285 285 282 281 279 280 280 283 283 286 284 281 278 275 275 275 274 273 274 274 276 277 275 276 269 264
277 276 276 276 277 277 277 278 279 280 280 280 280 281 281 282 282 285 286 283 282 280 278 278 280 284 285 285 283 280 277 277 275 273 272 271 271 270 270 270 270 269 264
275 274 272 273 275 275 274 277 277 278 278 279 279 279 281 282 282 283 284 284 283 280 278 278 279 281 282 283 282 282 279 274 270 269 268 268 267 267 267 267 268 268 269
270 268 269 270 273 273 272 274 274 276 276 277 277 276 278 280 280 282 282 283 282 280 279 279 278 278 277 276 279 277 272 269 267 265 264 265 265 264 264 262 261 261 260
266 266 268 268 269 269 271 273 274 276 278 276 276 273 275 277 278 279 280 280 280 280 278 276 276 274 275 271 268 269 269 269 267 264 261 259 259 259 257 259 256 255 255
267 266 266 267 264 266 269 268 273 275 279 277 278 277 276 273 279 281 281 280 278 281 276 272 268 267 266 264 263 263 263 263 261 257 255 255 255 256 256 253 251 251 253
267 266 265 264 263 265 265 266 274 277 279 280 280 282 280 281 280 280 281 281 280 281 274 271 264 261 261 259 259 258 258 257 256 255 252 253 253 254 253 252 250 248 251
265 264 263 264 263 262 262 262 263 268 276 277 278 278 280 279 279 279 279 278 279 275 268 267 262 260 259 257 256 257 256 255 252 253 251 251 250 249 251 251 249 248 249
261 262 260 259 258 258 258 258 257 261 261 263 269 274 275 278 276 276 276 271 264 266 263 261 259 261 261 259 258 257 255 254 253 252 251 247 247 250 251 250 248 249 247
261 258 257 256 255 256 256 255 256 257 257 254 257 267 264 272 272 271 270 260 257 259 259 261 261 262 262 260 258 254 252 251 249 249 247 247 245 247 246 245 246 248 246
258 260 257 255 253 254 254 254 254 256 255 253 254 255 259 259 257 256 255 254 257 259 259 261 261 260 259 258 257 254 252 251 250 249 247 246 244 246 247 245 245 248 246
259 258 257 253 252 251 252 252 251 254 251 250 251 255 271 252 251 250 251 253 252 254 257 259 259 259 259 257 256 254 253 251 249 248 247 245 244 248 243 244 242 241 242
260 257 253 254 251 253 252 250 251 252 250 251 250 251 266 250 249 249 250 251 251 252 253 255 257 257 256 256 256 257 255 253 249 248 248 247 247 245 245 244 243 242 242
259 257 253 251 251 253 251 249 250 252 250 249 249 250 249 249 249 249 249 249 249 251 253 254 256 257 256 256 255 256 256 256 252 251 250 248 247 247 246 246 245 244 244
260 258 257 254 252 251 253 251 250 252 251 250 249 249 249 248 248 249 249 248 249 249 250 252 253 255 255 256 255 255 256 254 252 251 250 250 248 248 246 245 245 244 244
260 258 258 257 255 254 252 250 250 249 249 250 250 249 248 248 249 249 248 248 249 249 250 249 249 250 251 253 253 254 257 257 253 253 252 252 250 247 246 246 245 245 245
260 259 258 255 254 252 254 254 253 252 252 250 249 249 248 249 249 248 249 249 250 250 250 249 249 250 250 250 251 257 262 262 254 254 253 254 252 251 249 249 247 246 245
Wind_Speed
13 13 13 13 13 12 12 13 13 14 15 14 12 11 12 14 14 12 11 11 12 11 11 10 11 10 7 6 6 6 7 9 8 4 3 4 6 9 9 8 7 7 7
8 9 11 11 12 13 13 13 12 13 12 12 12 12 12 12 12 13 13 12 11 11 11 12 12 7 9 7 6 7 5 4 7 13 8 4 5 6 8 8 6 6 4
8 9 9 10 10 11 11 11 10 10 10 11 11 12 12 12 11 10 10 9 11 12 11 11 11 9 9 7 7 6 6 8 7 8 8 5 4 4 6 6 6 6 6
8 9 11 12 11 8 7 9 11 10 11 12 12 11 11 10 10 10 10 10 10 10 10 11 11 12 9 7 7 7 6 8 9 9 8 7 4 3 4 5 4 4 4
8 9 9 8 8 9 11 10 9 11 10 10 10 12 11 12 10 9 8 9 9 8 9 9 9 10 16 14 4 4 7 7 7 7 6 4 4 4 5 2 3 3 2
6 8 6 6 6 7 8 8 9 10 9 9 11 12 10 9 19 19 12 8 8 8 8 9 7 10 12 19 20 19 9 7 8 5 3 6 4 3 3 5 4 2 2
5 6 7 7 7 7 7 7 8 8 8 10 12 12 12 11 17 17 17 8 8 8 9 8 7 6 8 9 15 18 18 20 12 4 6 3 3 4 5 4 3 3 2
5 5 5 5 6 6 7 9 9 8 8 9 11 11 10 9 16 12 13 7 8 10 9 8 8 6 8 7 9 11 12 13 11 8 8 4 4 4 3 3 4 7 4
5 5 5 6 6 7 8 9 8 8 9 9 9 11 11 9 19 17 9 7 7 7 9 9 8 7 8 10 7 9 9 9 13 16 16 15 12 11 8 6 3 3 2
5 6 6 7 7 8 6 9 8 8 8 7 8 7 7 8 15 18 7 3 5 5 6 8 14 10 9 8 5 5 7 5 5 6 7 10 10 11 14 7 2 3 3
4 5 6 6 6 6 6 7 7 8 8 8 9 5 6 6 8 17 12 4 4 5 6 6 7 16 14 12 10 5 5 4 8 7 7 6 7 7 7 7 7 4 3
4 4 4 4 4 4 4 5 4 5 8 8 7 6 3 4 11 13 17 13 10 6 6 5 6 13 16 16 10 12 12 9 4 5 6 6 6 6 6 7 8 8 7
5 4 3 4 5 4 4 4 3 5 3 4 4 4 5 4 4 12 13 14 9 6 5 9 12 12 13 11 14 12 7 4 4 4 3 3 2 1 2 3 4 5 5
5 3 3 4 4 4 4 3 3 5 5 4 5 3 3 3 4 4 3 3 7 3 5 5 8 10 12 7 5 7 5 3 3 3 2 1 1 3 3 3 3 3 4
5 3 3 3 4 4 3 1 2 3 5 4 5 5 4 3 7 13 10 4 3 5 4 3 3 3 4 4 4 5 4 4 4 2 2 2 3 2 3 3 2 3 4
5 2 2 2 2 2 3 4 6 7 10 14 16 15 4 12 15 17 16 14 12 11 3 2 2 2 3 2 3 3 3 4 4 3 2 2 2 2 2 3 3 4 3
6 4 2 3 2 3 3 3 4 6 11 14 14 17 17 12 15 17 17 12 15 10 4 4 3 3 2 2 2 3 2 3 2 3 3 2 2 3 3 3 2 2 2
5 6 3 3 2 2 2 2 1 3 3 4 8 12 18 15 15 16 17 11 5 9 4 4 3 3 3 3 3 2 2 3 3 3 3 3 3 3 3 2 3 2 1
6 4 4 3 2 2 3 3 2 2 4 2 4 8 11 13 13 16 16 5 3 4 3 4 3 4 4 3 3 3 3 3 2 2 3 3 2 2 2 2 2 3 3
4 7 5 3 2 1 4 2 1 5 4 3 2 3 5 5 6 6 5 4 3 3 2 4 4 3 3 3 3 2 2 2 2 2 2 2 1 2 3 3 2 1 1
4 5 6 4 2 2 4 3 1 4 3 2 1 4 12 4 2 3 3 4 4 4 4 3 2 2 2 2 2 2 2 1 1 1 2 2 1 3 2 3 3 3 2
6 5 3 4 3 1 4 3 1 3 3 3 2 4 9 3 2 3 3 3 3 3 1 2 3 2 2 2 2 2 2 1 0 0 1 1 2 3 3 3 2 2 2
6 6 4 3 3 4 4 2 3 3 3 1 0 2 2 2 1 1 2 3 3 3 3 2 2 2 2 2 2 1 1 2 2 3 3 2 2 2 1 2 2 2 2
7 7 6 5 4 2 4 3 2 4 3 2 1 1 1 2 3 3 3 3 3 3 2 2 3 3 2 2 2 2 2 1 1 1 3 3 3 3 2 2 1 2 2
7 7 6 6 5 4 4 3 3 3 3 3 2 1 1 2 2 2 2 3 2 2 3 2 1 3 3 3 3 3 3 5 3 3 2 3 4 4 3 2 2 1 1
7 7 6 5 5 4 4 5 4 4 4 3 3 3 2 2 3 3 2 2 2 3 3 2 2 2 3 2 2 1 1 3 3 4 3 3 4 3 2 3 4 2 2
Wind_Direction
17 19 23 20 25 31 33 26 22 26 25 30 31 30 27 24 22 30 39 32 37 30 22 25 32 23 27 34 53 69 82 103 106 85 91 111 92 95 81 71 61 56 94
16 26 27 25 22 29 31 26 21 25 23 28 29 30 28 29 28 27 27 28 38 39 26 27 22 17 36 25 45 67 75 85 124 124 130 109 89 85 89 79 63 52 45
12 25 32 36 35 24 17 26 28 28 33 34 36 35 29 23 22 30 36 33 27 23 31 43 31 20 30 26 44 58 81 100 106 127 119 112 98 96 84 74 71 57 50
12 31 26 17 14 25 27 25 22 26 28 22 25 31 32 31 31 22 19 26 39 39 31 29 28 29 25 24 46 58 75 94 113 119 123 120 117 119 100 121 97 56 62
19 34 26 12 11 13 19 27 27 28 26 23 31 33 28 29 24 22 31 31 23 28 36 34 34 26 40 40 58 68 97 105 111 120 124 123 124 139 140 137 95 115 69
23 28 8 14 25 26 19 18 26 30 32 32 36 34 33 36 34 35 32 31 31 25 21 29 32 25 35 51 51 56 69 107 122 124 132 136 129 120 119 135 135 160 131
26 23 19 16 22 22 25 34 37 30 24 29 31 28 31 31 31 34 32 31 31 21 19 9 20 35 31 40 54 56 52 58 58 86 120 95 126 153 133 129 138 96 86
38 32 20 8 14 14 25 32 26 21 19 27 29 26 22 16 20 37 40 32 28 22 16 8 14 21 50 48 52 59 55 52 52 61 76 75 76 100 109 119 111 106 102
37 23 13 17 23 23 30 32 29 26 27 27 25 21 18 6 7 16 24 20 52 33 27 13 357 8 66 71 72 74 68 64 59 68 69 72 87 102 115 116 101 103 81
24 17 17 20 24 20 14 23 18 22 23 21 22 23 13 5 359 0 21 41 53 39 31 18 12 11 54 79 77 78 74 56 71 67 54 57 54 55 57 50 106 118 113
37 34 30 18 21 12 5 25 21 23 20 19 14 12 11 14 356 6 37 38 65 64 30 23 9 20 33 64 69 72 92 78 73 75 68 54 51 49 45 38 37 75 127
58 51 35 20 21 16 6 3 13 19 28 20 14 7 2 20 14 15 17 50 51 62 48 26 20 22 28 51 51 70 80 85 75 70 70 61 58 46 35 43 47 57 52
80 50 24 22 19 2 18 15 23 27 25 356 349 359 357 19 13 15 27 25 55 62 64 57 41 39 34 30 45 60 60 75 90 76 72 56 53 350 5 37 36 46 62
97 53 30 42 2 10 27 11 36 36 14 9 14 357 351 17 352 342 357 27 14 73 83 61 53 59 59 54 30 33 26 33 86 105 117 174 336 33 44 9 61 357 56
110 87 30 48 18 5 16 305 354 347 6 6 8 338 19 359 12 9 18 15 346 353 120 86 35 27 30 22 19 27 28 22 59 35 42 53 41 41 27 5 41 27 74
125 130 75 40 12 28 18 354 18 29 25 28 18 18 25 37 15 11 6 5 360 347 62 73 54 27 51 15 17 359 26 6 22 53 43 59 68 69 57 17 56 64 90
140 139 126 88 33 44 27 22 26 0 39 33 19 15 9 25 12 6 3 13 29 42 51 43 54 26 12 33 38 42 18 349 330 43 63 59 79 45 53 41 47 65 41
134 131 133 127 114 93 74 29 12 58 48 357 357 19 9 4 15 21 18 32 25 24 24 31 20 6 21 28 16 32 15 14 40 40 54 39 47 94 57 49 35 108 83
141 136 126 119 109 120 92 52 46 64 59 41 341 4 3 2 28 36 43 61 50 25 1 21 9 19 27 20 24 25 29 25 23 36 43 62 47 89 77 66 80 65 105
132 133 127 124 122 103 83 69 55 69 57 36 13 316 333 9 9 4 7 10 34 37 17 26 16 21 22 18 23 28 30 15 28 57 68 79 71 81 108 124 80 100 66
139 125 138 104 146 172 108 101 159 103 89 48 341 307 37 84 343 351 348 357 4 357 350 4 13 40 30 14 13 18 34 2 2 81 114 113 111 87 88 90 105 88 114
143 137 146 136 158 145 114 139 140 100 94 68 2 328 29 78 40 348 335 334 322 313 317 329 356 14 12 29 358 358 6 350 341 94 83 107 111 108 117 98 80 79 61
142 141 148 126 159 149 110 138 146 110 106 133 108 360 358 6 22 336 304 307 322 331 332 359 16 8 2 352 352 347 348 345 269 172 151 149 127 113 113 118 138 106 84
153 153 160 148 141 179 136 168 164 120 128 133 77 14 319 311 315 307 303 306 318 324 335 352 350 357 354 12 6 359 359 26 74 148 146 137 135 115 91 80 68 75 128
161 153 160 163 156 182 148 157 157 150 158 179 175 167 260 288 293 292 299 297 301 325 328 335 343 337 352 7 22 13 348 42 61 95 104 110 118 118 93 86 117 80 79
165 157 153 159 151 171 166 177 185 181 170 188 199 191 210 241 262 276 290 309 321 318 325 324 328 339 333 323 314 267 12 75 92 100 111 108 114 107 84 97 81 79 91